SB KEPS @ AMSAT $ORB26128.1 2Line Orbital Elements 26128.AMSAT QST de W1STR AMSAT Orbital Elements for Amateur Satellites in TLE Format From Orbital Analysis Office New England Sci-Tech STEM Education Center Natick MA May 08, 2026 To all radio amateurs These element sets describe the orbits of various satellites in use by the amateur radio community. For details see: www.amsat.org/keplerian-elements-formats/ A daily update of element sets is available at: www.amsat.org/tle/daily-bulletin.txt or without bulletin text: www.amsat.org/tle/dailytle.txt AO-07 1 07530U 74089B 26127.78991574 -.00000046 00000-0 30184-5 0 9993 2 07530 101.9921 140.6130 0012079 206.6265 325.8627 12.53697400355453 UO-11 1 14781U 84021B 26127.81360631 .00001014 00000-0 10901-3 0 9992 2 14781 97.8033 93.8498 0006693 328.3521 31.7294 14.90688394251110 AO-27 1 22825U 93061C 26127.79346627 .00000084 00000-0 48906-4 0 9993 2 22825 98.6894 195.2175 0007765 212.1741 147.8968 14.30931234701223 FO-29 1 24278U 96046B 26127.57219433 -.00000043 00000-0 -68262-5 0 9998 2 24278 98.5285 341.9976 0349465 201.6829 156.9202 13.53272352467678 GO-32 1 25397U 98043D 26127.81503841 .00000052 00000-0 42511-4 0 9992 2 25397 99.0063 119.5581 0001268 23.4331 336.6904 14.24420390445584 ISS 1 25544U 98067A 26127.81231377 .00005524 00000-0 10783-3 0 9998 2 25544 51.6307 139.9570 0007375 34.4297 325.7168 15.49136029565490 NO-44 1 26931U 01043C 26127.85829617 .00000090 00000-0 64657-4 0 9994 2 26931 67.0519 348.5814 0006346 263.8002 96.2377 14.31940411284673 SO-50 1 27607U 02058C 26127.76209222 .00001084 00000-0 14510-3 0 9992 2 27607 64.5523 254.0492 0075634 269.8415 89.4024 14.82961176258462 CO-55 1 27844U 03031E 26127.57396125 .00000259 00000-0 13101-3 0 9993 2 27844 98.6749 136.6424 0008530 308.3336 51.7076 14.24310430185897 RS-22 1 27939U 03042A 26127.81842522 .00000948 00000-0 15437-3 0 9993 2 27939 98.3471 311.0392 0012187 41.6020 85.6420 14.73396981209608 CO-65 1 32785U 08021C 26127.87221764 .00003915 00000-0 25115-3 0 9996 2 32785 97.8270 108.4710 0009649 155.1961 204.9732 15.09075373979111 CO-66 1 32791U 08021J 26127.70535264 .00013576 00000-0 45014-3 0 9992 2 32791 97.7533 123.7184 0005121 94.6930 265.4895 15.31385262981096 RS-30 1 32953U 08025A 26127.77894986 .00000028 00000-0 12701-3 0 9997 2 32953 82.5073 20.5750 0020471 41.2634 318.9988 12.43177953814676 SRMSAT 1 37841U 11058D 26127.80052163 .00000405 00000-0 75810-4 0 9995 2 37841 19.9731 303.9251 0011766 119.4007 16.2660 14.11566674752108 ZACUBE-1 1 39417U 13066B 26127.87666838 .00004007 00000-0 31384-3 0 9993 2 39417 97.8128 89.9961 0042619 28.7451 331.6108 15.00875905674685 Delfi-N3xt 1 39428U 13066N 26127.74748772 .00005479 00000-0 48413-3 0 9994 2 39428 97.8345 48.1098 0074692 342.8618 17.0081 14.94622180668581 GOMX-1 1 39430U 13066Q 26127.80376193 .00001878 00000-0 28841-3 0 9990 2 39430 97.6509 330.8119 0128111 206.6549 152.8035 14.69305195663987 LO-74 1 39440U 13066AA 26127.79982950 .00003216 00000-0 30142-3 0 9998 2 39440 97.8885 76.6250 0058504 159.7468 200.6091 14.93467111670968 AO-73 1 39444U 13066AE 26127.81175377 .00006674 00000-0 42051-3 0 9995 2 39444 97.8253 98.4376 0036020 344.0443 15.9647 15.08961820673570 DTUSAT-2 1 40030U 14033W 26127.74354095 .00005970 00000-0 32811-3 0 9992 2 40030 98.0870 122.9229 0008422 25.6058 334.5587 15.14491964646566 LILACSAT-2 1 40908U 15049K 26127.87806005 .00014159 00000-0 25281-3 0 9993 2 40908 97.4703 163.2190 0008113 52.8189 307.3801 15.50129939589504 Horyu-4 1 41340U 16012D 26127.86883811 .00140314 00000-0 82393-3 0 9994 2 41340 30.9895 10.1209 0006002 340.6173 19.4254 15.76711184564419 Lapan A3 1 41603U 16040E 26127.91629560 .00003442 00000-0 11068-3 0 9993 2 41603 97.1493 125.3955 0011186 150.8286 209.3583 15.32852489548640 CAS-2T 1 41847U 16066G 26127.79012120 .00000652 00000-0 10175-3 0 9993 2 41847 98.3826 203.9830 0340924 252.0766 104.2984 14.44584690498966 TechnoSat 1 42829U 17042E 26127.48785742 .00002321 00000-0 16862-3 0 9996 2 42829 97.4248 286.7135 0016366 229.0051 130.9761 15.04712390480588 AO-91 1 43017U 17073E 26127.58309639 .00007885 00000-0 34694-3 0 9991 2 43017 97.4756 355.6432 0154071 108.6232 253.1800 15.11980014459257 S-Net D 1 43186U 18014G 26127.81539388 .00004326 00000-0 22663-3 0 9996 2 43186 97.5387 32.8643 0009139 148.1078 212.0709 15.16296100452643 S-Net B 1 43187U 18014H 26127.62807883 .00004136 00000-0 21700-3 0 9994 2 43187 97.5391 32.6636 0009865 144.7936 215.3950 15.16264534452617 S-Net A 1 43188U 18014J 26127.68248753 .00004347 00000-0 22769-3 0 9996 2 43188 97.5402 32.9190 0009729 145.4437 214.7429 15.16301725452621 S-Net C 1 43189U 18014K 26127.63173341 .00003980 00000-0 20895-3 0 9992 2 43189 97.5420 32.9370 0011262 140.0486 220.1578 15.16255385451166 Ten-Koh 1 43677U 18084G 26127.77510502 .00001401 00000-0 10970-3 0 9999 2 43677 98.0784 318.4422 0007626 249.9078 110.1326 15.02768094410099 PO-101 1 43678U 18084H 26127.75429174 .00002730 00000-0 22300-3 0 9998 2 43678 98.1084 322.2335 0012341 310.7291 49.2859 15.00254143410157 QO-100 1 43700U 18090A 26127.69336468 .00000152 00000-0 00000+0 0 9992 2 43700 0.0087 279.3739 0001655 157.5059 64.0811 1.00272467 27277 MinXSS-2 1 43758U 18099A 26127.81964544 .00027408 00000-0 59487-3 0 9990 2 43758 97.4545 203.0056 0007974 61.7396 298.4656 15.44320558407893 AO-95 1 43770U 18099N 26127.82238190 .00008906 00000-0 35024-3 0 9999 2 43770 97.4406 188.2402 0010326 126.4935 233.7256 15.25844325407064 SNUSat 2 1 43782U 18099AA 26127.09775858 .00007234 00000-0 32661-3 0 9995 2 43782 97.4087 181.1263 0011930 83.1442 277.1151 15.21214343406784 SnugLite 1 43784U 18099AC 26127.57273979 .00008129 00000-0 31599-3 0 9990 2 43784 97.3893 182.2742 0004426 84.7292 275.4452 15.26298774407125 ITASat 1 1 43786U 18099AE 26127.10730397 .00005598 00000-0 27373-3 0 9995 2 43786 97.4056 179.4489 0014065 132.2034 228.0397 15.18530608406675 EAGLET 1 1 43790U 18099AJ 26127.57161727 .00003145 00000-0 18334-3 0 9999 2 43790 97.4258 178.3189 0012651 122.7981 237.4471 15.12628738406193 ESEO 1 43792U 18099AL 26127.53457590 .00001608 00000-0 12001-3 0 9990 2 43792 97.3994 166.6598 0013335 110.2225 250.0437 15.04115077405693 JO-97 1 43803U 18099AX 26127.62518522 .00011779 00000-0 37877-3 0 9994 2 43803 97.4152 190.3555 0006819 66.5360 293.6598 15.32384687407411 Suomi 100 1 43804U 18099AY 26127.86418189 .00008897 00000-0 33276-3 0 9995 2 43804 97.4210 188.4312 0011382 68.8650 291.3805 15.27500309407268 ISAT 1 43879U 18111D 26127.79720275 .00059131 00000-0 75725-3 0 9998 2 43879 97.5900 60.1318 0008553 93.9313 266.2921 15.58964479404869 UWE-4 1 43880U 18111E 26127.73076590 .00023812 00000-0 52780-3 0 9991 2 43880 97.5857 54.3410 0010684 106.8348 253.4072 15.43699555404533 Sparrow 1 43881U 18111F 26127.76208154 .00075794 00000-0 76816-3 0 9990 2 43881 97.6125 65.1067 0007618 115.4868 244.7180 15.64978071405032 Prox-1 1 44339U 19036A 26127.81140763 .00010253 00000-0 10167-2 0 9998 2 44339 23.9965 23.7450 0006410 285.5160 74.4631 14.89672762367449 Taurus 1 1 44530U 19059C 26127.86188492 .00004752 00000-0 77096-3 0 9994 2 44530 98.6394 290.2097 0009554 82.6225 277.6066 14.71665882352714 TO-108 1 44881U 19093C 26127.79078708 .00000334 00000-0 43853-4 0 9998 2 44881 97.7537 201.0069 0012520 215.2695 144.7693 14.86453274345418 RS-44 1 44909U 19096E 26127.89805267 .00000014 00000-0 16590-4 0 9994 2 44909 82.5248 6.4806 0216523 238.4583 119.5212 12.79748121297194 SALSAT 1 46495U 20068K 26127.58311435 .00005913 00000-0 21124-3 0 9993 2 46495 97.8866 128.1971 0011678 86.8461 273.4114 15.29205626309157 CSS (TIANHE-1) 1 48274U 21035A 26127.59792897 .00019425 00000-0 20743-3 0 9990 2 48274 41.4664 208.9614 0004935 350.6261 9.4486 15.63441094286820 CUTE 1 49263U 21088D 26127.76960603 .00162459 00000-0 98484-3 0 9991 2 49263 97.4199 223.6971 0000755 289.2032 70.9152 15.77080946256158 TeikyoSat 4 1 49396U 21102B 26127.54991815 .00001701 00000-0 11014-3 0 9996 2 49396 97.3704 158.6112 0013785 75.7967 284.4792 15.09365624246595 Z-Sat 1 49399U 21102E 26127.85876216 .00001928 00000-0 97848-4 0 9991 2 49399 97.3355 164.4085 0017564 33.6642 326.5704 15.17957374247327 KOSEN 1 1 49402U 21102H 26127.56620595 .00005181 00000-0 20210-3 0 9994 2 49402 97.3221 170.5229 0013373 359.1593 0.9620 15.26283410247825 HO-113 1 50466U 21131B 26127.86031609 .00000409 00000-0 14000-3 0 9991 2 50466 98.4954 220.4730 0003496 203.5961 156.5068 14.41318802229307 SNUGLITE 2 1 52899U 22065F 26127.64660394 .00000924 00000-0 18431-3 0 9999 2 52899 98.2148 272.5634 0008289 143.9061 216.2703 14.64271354205068 UmKA 1 (RS40S) 1 57172U 23091G 26127.82008765 .00004693 00000-0 21848-3 0 9999 2 57172 97.5073 186.6812 0011299 258.2840 101.7128 15.20363685157875 CubeBel-2 (EU11S) 1 57175U 23091K 26127.86077765 .00009662 00000-0 35356-3 0 9992 2 57175 97.5070 190.7436 0008611 253.0699 106.9596 15.28228832158141 RS-38S 1 57189U 23091Z 26127.86994796 .00012846 00000-0 38310-3 0 9990 2 57189 97.5104 196.5853 0007172 202.6722 157.4205 15.34765760158500 SONATE-2 1 59112U 24043Q 26127.65407748 .00027086 00000-0 39150-3 0 9994 2 59112 97.5500 275.6712 0006193 354.0212 6.0967 15.55892927121580 GRBBeta 1 60237U 24128C 26127.79716999 .00003146 00000-0 22273-3 0 9993 2 60237 61.9913 357.9384 0045892 126.2647 234.2700 15.06313033100187 Curium One 1 60242U 24128H 26127.89994176 .00006365 00000-0 37386-3 0 9992 2 60242 61.9802 348.3938 0045606 122.6702 237.8805 15.11870352100367 ROBUSTA-3A 1 60243U 24128J 26127.84261437 .00006023 00000-0 36223-3 0 9995 2 60243 61.9878 350.8474 0046718 120.0875 240.4864 15.11051973100323 CatSat 1 60246U 24125J 26127.63304066 .00036778 00000-0 55351-3 0 9991 2 60246 97.2131 339.7384 0022062 335.0579 24.9607 15.54457061101080 HYPERVIEW-1G (RS66S) 1 61772U 24199AP 26127.80559265 .00077968 00000-0 72285-3 0 9990 2 61772 97.2949 5.7655 0008237 77.5494 282.6689 15.67197507128335 AO-123 1 61781U 24199AY 26127.88780354 .00006369 00000-0 18867-3 0 9996 2 61781 97.3051 356.9284 0015918 93.6759 266.6306 15.35088863127747 JINJUSat 1B 1 63210U 25052A 26127.67177036 .00011720 00000-0 37851-3 0 9999 2 63210 97.4039 24.4044 0002259 188.9219 171.1983 15.32265681 63895 NUSHSAT 1 1 63211U 25052B 26127.45015611 .00014506 00000-0 43719-3 0 9991 2 63211 97.4020 24.6186 0001921 186.8857 173.2360 15.34421836 63895 TEVEL2-4 1 63213U 25052D 26127.34351068 .00013355 00000-0 41835-3 0 9998 2 63213 97.3942 23.7047 0000867 192.3287 167.7934 15.33213203 63859 TEVEL2-5 1 63214U 25052E 26127.42497667 .00013024 00000-0 40999-3 0 9997 2 63214 97.3940 23.7449 0000887 190.7717 169.3507 15.33063100 63860 TEVEL2-6 1 63215U 25052F 26127.43631863 .00013166 00000-0 41491-3 0 9992 2 63215 97.3943 23.7411 0000918 202.0726 158.0476 15.33025348 63867 TEVEL2-1 1 63217U 25052H 26127.64779811 .00012790 00000-0 40924-3 0 9995 2 63217 97.3920 23.6233 0000505 248.1895 111.9293 15.32544551 63883 TEVEL2-3 1 63218U 25052J 26127.44790774 .00012532 00000-0 40053-3 0 9992 2 63218 97.3917 23.4407 0000519 254.1419 105.9765 15.32586019 63854 TEVEL2-2 1 63219U 25052K 26127.45241872 .00012510 00000-0 40034-3 0 9999 2 63219 97.3918 23.4296 0000530 256.2484 103.8699 15.32544809 63854 TEVEL2-9 1 63237U 25052AD 26127.24807855 .00012079 00000-0 40962-3 0 9995 2 63237 97.3984 22.6851 0004212 295.0647 65.0156 15.30675530 63769 TEVEL2-7 1 63238U 25052AE 26127.67388243 .00011020 00000-0 37697-3 0 9994 2 63238 97.3980 23.0421 0004271 292.5848 67.4940 15.30419881 63823 TEVEL2-8 1 63239U 25052AF 26127.68168148 .00010678 00000-0 36555-3 0 9996 2 63239 97.3981 23.0281 0004235 293.5171 66.5625 15.30402015 63820 HYDRA-W 1 63490U 25052BL 26113.93882235 .05662091 24406-5 29537-2 0 9997 2 63490 97.3690 18.2798 0008685 203.5899 156.4993 16.20186780 62336 HADES-ICM (SO-125) 1 63492U 25052BN 26125.23154520 .00757455 00000-0 29228-2 0 9994 2 63492 97.3784 28.6812 0006451 159.5468 200.6062 15.85436039 64005 SPIRONE 1 66657U 25274H 26127.78682281 .00001449 00000-0 14329-3 0 9990 2 66657 97.7470 57.6633 0012931 142.8519 217.3598 14.93380868 24193 K-HERO 1 66660U 25274L 26127.53489448 .00001705 00000-0 16580-3 0 9993 2 66660 97.7475 57.5458 0014771 148.6969 211.5133 14.93806354 24164 SNUGLITE-III DURI 1 66661U 25274M 26127.79191963 .00001175 00000-0 11581-3 0 9991 2 66661 97.7477 57.8183 0015332 148.8735 211.3396 14.93863444 24209 SilverSat 1 66909U 98067XV 26113.44966717 .07226154 12288-4 11979-2 0 9998 2 66909 51.6027 190.0749 0007952 333.4666 26.5949 16.32457272 22308 SAKHACUBE-CHOLBON 1 67290U 25313AU 26127.46483978 .00007118 00000-0 29501-3 0 9992 2 67290 97.3933 203.0307 0010724 134.6081 225.6033 15.24146811 19770 RS95S (QMR-KWT-2) 1 67291U 25313AV 26127.48595536 .00010449 00000-0 41786-3 0 9999 2 67291 97.3936 203.1529 0010464 134.2337 225.9762 15.25232270 19781 Ten-Koh2 1 68261U 25241B 26127.34956553 .00004832 00000-0 21422-3 0 9996 2 68261 51.6508 153.9225 0006077 14.9222 345.1934 15.23375453 8686 JACK-002 1 68417U 26067B 26127.84937047 .00005372 00000-0 26072-3 0 9994 2 68417 97.4543 86.9628 0003979 75.9697 284.1979 15.18894335 5822 DISCO 2 1 68431U 26067R 26127.79474166 .00006383 00000-0 31268-3 0 9998 2 68431 97.4583 86.9017 0004112 115.3675 244.7986 15.18492801 5810 HADES-SA (SpinnyONE) 1 68446U 26067AG 26127.82293743 .00013614 00000-0 67692-3 0 9993 2 68446 97.4392 86.7751 0006192 194.4351 165.6707 15.17737735 5804 PARUS-6U1 1 68456U 26067AS 26127.82766461 .00004905 00000-0 25084-3 0 9998 2 68456 97.4533 86.8336 0005241 184.0741 176.0451 15.17100390 5818 SAL-E 1 68458U 26067AU 26127.82733826 .00006472 00000-0 32896-3 0 9999 2 68458 97.4455 86.7989 0005153 193.6240 166.4855 15.17193562 5812 FSI-SAT 2 1 68792U 26088A 26127.83958212 .00004108 00000-0 28170-3 0 9996 2 68792 97.5017 278.1343 0013546 242.9546 117.0299 15.06501614 2215 OrigamiSat 2 1 68795U 26088D 26127.36072617 .00003500 00000-0 23122-3 0 9990 2 68795 97.5032 277.7016 0015048 216.1436 143.8776 15.07967504 2141 ARICA 2 1 68796U 26088E 26127.35974830 .00004427 00000-0 29035-3 0 9996 2 68796 97.5018 277.6989 0015122 214.3003 145.7251 15.08088015 2148 WASEDA-SAT-ZERO-II 1 68797U 26088F 26127.35927579 .00005352 00000-0 34942-3 0 9996 2 68797 97.5020 277.6993 0015112 214.2165 145.8091 15.08165824 2141 MANGARO-II-Piscus 1 68798U 26088G 26127.48869307 .00003738 00000-0 24298-3 0 9994 2 68798 97.5027 277.8353 0018377 217.2559 142.7395 15.08478138 2167 IO-86 1 40931U 25360.30710720 .00000000 00000-0 12800-3 0 00 2 40931 6.0006 332.5373 0012733 338.8432 8.1437 14.79075515 01 LILIUM-4 1 71922C 26067AC 26089.50133053 -.00014632 00000+0 -74472-3 0 04 2 71922 97.4497 49.1617 0004341 5.9603 355.7042 15.16896692 16 /EX